Meteo pe oră la Semnan

Astăzi, 1 Octombrie, Joi

Timp Temperatura Precipitaţii Vânt Presiune Umiditate
00:00 +15°C° 0 mm 1 m/s 679 mmHg 27%
01:00 +15°C° 0 mm 1 m/s 679 mmHg 28%
02:00 +15°C° 0 mm 1 m/s 679 mmHg 29%
03:00 +14°C° 0 mm 1 m/s 678 mmHg 29%
04:00 +14°C° 0 mm 1 m/s 678 mmHg 30%
05:00 +14°C° 0 mm 1 m/s 679 mmHg 30%
06:00 +14°C° 0 mm 1 m/s 679 mmHg 30%
07:00 +15°C° 0 mm 1 m/s 680 mmHg 29%
08:00 +18°C° 0 mm 1 m/s 680 mmHg 25%
09:00 +21°C° 0 mm 1 m/s 681 mmHg 21%
10:00 +23°C° 0 mm 2 m/s 682 mmHg 17%
11:00 +24°C° 0 mm 2 m/s 682 mmHg 16%
12:00 +25°C° 0 mm 2 m/s 682 mmHg 15%
13:00 +27°C° 0 mm 2 m/s 682 mmHg 14%
14:00 +27°C° 0 mm 2 m/s 681 mmHg 14%
15:00 +27°C° 0 mm 2 m/s 681 mmHg 14%
16:00 +28°C° 0 mm 2 m/s 680 mmHg 14%
17:00 +25°C° 0 mm 1 m/s 680 mmHg 17%
18:00 +23°C° 0 mm 1 m/s 680 mmHg 20%
19:00 +18°C° 0 mm 0 m/s 679 mmHg 23%
20:00 +20°C° 0 mm 1 m/s 679 mmHg 23%
21:00 +20°C° 0 mm 1 m/s 680 mmHg 23%
22:00 +19°C° 0 mm 1 m/s 680 mmHg 24%
23:00 +19°C° 0 mm 1 m/s 680 mmHg 25%

Mâine, 2 Octombrie, Vineri

Timp Temperatura Precipitaţii Vânt Presiune Umiditate
00:00 +18°C° 0 mm 1 m/s 680 mmHg 26%
01:00 +18°C° 0 mm 1 m/s 679 mmHg 26%
02:00 +18°C° 0 mm 1 m/s 679 mmHg 28%
03:00 +16°C° 0 mm 1 m/s 679 mmHg 29%
04:00 +16°C° 0 mm 1 m/s 679 mmHg 30%
05:00 +16°C° 0 mm 1 m/s 680 mmHg 29%
06:00 +16°C° 0 mm 1 m/s 680 mmHg 28%
07:00 +16°C° 0 mm 1 m/s 680 mmHg 28%
08:00 +20°C° 0 mm 1 m/s 681 mmHg 23%
09:00 +23°C° 0 mm 1 m/s 682 mmHg 19%
10:00 +26°C° 0 mm 1 m/s 683 mmHg 15%
11:00 +27°C° 0 mm 2 m/s 683 mmHg 14%
12:00 +28°C° 0 mm 2 m/s 682 mmHg 13%
13:00 +30°C° 0 mm 3 m/s 682 mmHg 13%
14:00 +30°C° 0 mm 3 m/s 682 mmHg 13%
15:00 +31°C° 0 mm 3 m/s 682 mmHg 13%
16:00 +31°C° 0 mm 3 m/s 681 mmHg 12%
17:00 +28°C° 0 mm 2 m/s 681 mmHg 16%
18:00 +25°C° 0 mm 1 m/s 680 mmHg 19%
19:00 +22°C° 0 mm 1 m/s 680 mmHg 22%
20:00 +22°C° 0 mm 1 m/s 680 mmHg 23%
21:00 +21°C° 0 mm 1 m/s 680 mmHg 24%
22:00 +21°C° 0 mm 1 m/s 680 mmHg 25%
23:00 +21°C° 0 mm 1 m/s 680 mmHg 26%

Poimâine, 3 Octombrie, Sâmbătă

Timp Temperatura Precipitaţii Vânt Presiune Umiditate
00:00 +21°C° 0 mm 1 m/s 680 mmHg 27%
01:00 +20°C° 0 mm 2 m/s 680 mmHg 28%
02:00 +19°C° 0 mm 2 m/s 680 mmHg 31%
03:00 +19°C° 0 mm 1 m/s 680 mmHg 33%
04:00 +19°C° 0 mm 1 m/s 680 mmHg 36%
05:00 +19°C° 0 mm 1 m/s 680 mmHg 34%
06:00 +19°C° 0 mm 1 m/s 680 mmHg 33%
07:00 +19°C° 0 mm 1 m/s 680 mmHg 32%
08:00 +22°C° 0 mm 1 m/s 681 mmHg 27%
09:00 +25°C° 0 mm 1 m/s 682 mmHg 22%
10:00 +28°C° 0 mm 1 m/s 683 mmHg 18%
11:00 +29°C° 0 mm 2 m/s 683 mmHg 16%
12:00 +30°C° 0 mm 3 m/s 683 mmHg 15%
13:00 +31°C° 0 mm 3 m/s 682 mmHg 14%
14:00 +33°C° 0 mm 3 m/s 682 mmHg 14%
15:00 +33°C° 0 mm 3 m/s 682 mmHg 14%
16:00 +33°C° 0 mm 3 m/s 682 mmHg 13%
17:00 +30°C° 0 mm 2 m/s 682 mmHg 17%
18:00 +27°C° 0 mm 1 m/s 681 mmHg 20%
19:00 +24°C° 0 mm 1 m/s 680 mmHg 23%
20:00 +24°C° 0 mm 1 m/s 681 mmHg 25%
21:00 +23°C° 0 mm 2 m/s 681 mmHg 26%
22:00 +23°C° 0 mm 2 m/s 682 mmHg 27%
23:00 +21°C° 0 mm 2 m/s 682 mmHg 30%

4 Octombrie, Duminică

Timp Temperatura Precipitaţii Vânt Presiune Umiditate
00:00 +21°C° 0 mm 2 m/s 681 mmHg 32%
01:00 +21°C° 0 mm 1 m/s 681 mmHg 35%
02:00 +20°C° 0 mm 1 m/s 681 mmHg 36%
03:00 +20°C° 0 mm 1 m/s 681 mmHg 38%
04:00 +19°C° 0 mm 1 m/s 681 mmHg 39%
05:00 +20°C° 0 mm 1 m/s 682 mmHg 39%
06:00 +20°C° 0 mm 1 m/s 682 mmHg 38%
07:00 +20°C° 0 mm 1 m/s 682 mmHg 38%
08:00 +23°C° 0 mm 2 m/s 683 mmHg 33%
09:00 +25°C° 0 mm 2 m/s 684 mmHg 27%
10:00 +28°C° 0 mm 2 m/s 685 mmHg 22%
11:00 +29°C° 0 mm 3 m/s 684 mmHg 21%
12:00 +30°C° 0 mm 3 m/s 684 mmHg 19%
13:00 +31°C° 0 mm 3 m/s 684 mmHg 18%
14:00 +31°C° 0 mm 3 m/s 683 mmHg 17%
15:00 +31°C° 0 mm 3 m/s 683 mmHg 16%
16:00 +33°C° 0 mm 3 m/s 682 mmHg 16%
17:00 +29°C° 0 mm 3 m/s 682 mmHg 19%
18:00 +27°C° 0 mm 3 m/s 682 mmHg 21%
19:00 +25°C° 0 mm 3 m/s 681 mmHg 24%
20:00 +25°C° 0 mm 2 m/s 681 mmHg 25%
21:00 +24°C° 0 mm 2 m/s 682 mmHg 25%
22:00 +24°C° 0 mm 2 m/s 682 mmHg 26%
23:00 +24°C° 0 mm 2 m/s 682 mmHg 27%

5 Octombrie, Luni

Timp Temperatura Precipitaţii Vânt Presiune Umiditate
00:00 +23°C° 0 mm 2 m/s 681 mmHg 28%
01:00 +22°C° 0 mm 3 m/s 681 mmHg 29%
02:00 +21°C° 0 mm 2 m/s 681 mmHg 30%
03:00 +21°C° 0 mm 2 m/s 681 mmHg 31%
04:00 +20°C° 0 mm 2 m/s 681 mmHg 33%
05:00 +20°C° 0 mm 2 m/s 681 mmHg 34%
06:00 +20°C° 0 mm 1 m/s 681 mmHg 35%
07:00 +20°C° 0 mm 1 m/s 681 mmHg 36%
08:00 +22°C° 0 mm 1 m/s 681 mmHg 32%
09:00 +25°C° 0 mm 2 m/s 682 mmHg 28%
10:00 +27°C° 0 mm 2 m/s 682 mmHg 24%
11:00 +28°C° 0 mm 2 m/s 682 mmHg 22%
12:00 +29°C° 0 mm 2 m/s 682 mmHg 20%
13:00 +30°C° 0 mm 2 m/s 681 mmHg 18%
14:00 +31°C° 0 mm 3 m/s 681 mmHg 17%
15:00 +31°C° 0 mm 3 m/s 681 mmHg 16%
16:00 +33°C° 0 mm 3 m/s 681 mmHg 15%
17:00 +30°C° 0 mm 3 m/s 681 mmHg 19%
18:00 +28°C° 0 mm 2 m/s 680 mmHg 22%
19:00 +26°C° 0 mm 2 m/s 680 mmHg 25%
20:00 +25°C° 0 mm 2 m/s 680 mmHg 27%
21:00 +25°C° 0 mm 2 m/s 680 mmHg 28%
22:00 +24°C° 0 mm 2 m/s 681 mmHg 30%
23:00 +23°C° 0 mm 2 m/s 680 mmHg 32%

6 Octombrie, Marţi

Timp Temperatura Precipitaţii Vânt Presiune Umiditate
00:00 +23°C° 0 mm 1 m/s 680 mmHg 34%
01:00 +22°C° 0 mm 1 m/s 680 mmHg 36%
02:00 +20°C° 0 mm 2 m/s 679 mmHg 39%
03:00 +19°C° 0 mm 2 m/s 679 mmHg 41%
04:00 +19°C° 0 mm 3 m/s 679 mmHg 44%
05:00 +19°C° 0 mm 3 m/s 679 mmHg 46%
06:00 +18°C° 0 mm 3 m/s 680 mmHg 48%
07:00 +18°C° 0 mm 3 m/s 680 mmHg 50%
08:00 +20°C° 0 mm 3 m/s 681 mmHg 44%
09:00 +22°C° 0 mm 3 m/s 681 mmHg 38%
10:00 +26°C° 0 mm 3 m/s 682 mmHg 32%
11:00 +27°C° 0 mm 3 m/s 682 mmHg 29%
12:00 +28°C° 0 mm 3 m/s 682 mmHg 26%
13:00 +29°C° 0 mm 3 m/s 682 mmHg 24%
14:00 +29°C° 0 mm 3 m/s 681 mmHg 22%
15:00 +30°C° 0 mm 3 m/s 681 mmHg 21%
16:00 +30°C° 0 mm 3 m/s 681 mmHg 19%
17:00 +28°C° 0 mm 2 m/s 680 mmHg 23%
18:00 +26°C° 0 mm 2 m/s 680 mmHg 26%
19:00 +24°C° 0 mm 2 m/s 680 mmHg 30%
20:00 +23°C° 0.1 mm 2 m/s 680 mmHg 35%
21:00 +23°C° 0.1 mm 2 m/s 681 mmHg 40%
22:00 +21°C° 0.1 mm 3 m/s 681 mmHg 45%
23:00 +20°C° 0 mm 3 m/s 681 mmHg 46%
Arată mai mult

We Need Your Consent

Meteoprog and our Service Providers may store and access personal data such as cookies, device identifiers or other similar technologies on your device and process such data to personalise content and ads, as well as provide social media features and to analyse the traffic.

  • Store and/or access information on your device

    Cookies, device identifiers or other information can be stored or accessed on your device for the purposes indicated above.

  • Personalised ads and content, ad and content measurement, audience insights, and products development

    Ads and content can be personalised based on a profile. More data can be added to better personalise ads and content. Ad and content performance can be measured. Insights about the audience who saw the ads and content can be derived. Such data can be used to develop or improve user’s experience, systems and software.

By clicking ‘I Agree’ you will allow the use of indicated cookies, device identifiers, web beacons or other similar technologies. Your settings can be changed in the browser on your device.

For certain purposes, legitimate interests may be relied on, rather than consent. You can read more about this in our Privacy and Cookie Policy.